NPV3605 LIPX-LGKO

Flight info

Callsign NPV3605
Flight time 2h 0m
Altitude 19000
Route ITEFE T558 LUMAV/N0455F330 DCT TORPO DCT RODON DCT PINDO/N0405F230 L607 ATV R19 KOPAR
Aircraft B738/M-SDE2E3FGHIRWXY/LB1

Departure

Time 2026-04-30 12:35
Airport Verona Villafranca Valerio Catullo Airport (LIPX)

Arrival

Time 2026-04-30 14:36
Airport Kos International Airport "Ippokratis" (LGKO)
Time Latitude Longitude Altitude Speed Heading
2026-04-30 11:16 45.40272 10.90552 241 ft 0 kts 135°
2026-04-30 12:20 45.40281 10.90538 241 ft 4 kts 135°
2026-04-30 12:21 45.40298 10.90515 241 ft 4 kts 142°
2026-04-30 12:21 45.40320 10.90501 241 ft 4 kts 193°
2026-04-30 12:21 45.40340 10.90520 241 ft 4 kts 237°
2026-04-30 12:21 45.40353 10.90553 241 ft 4 kts 237°
2026-04-30 12:22 45.40360 10.90568 241 ft 0 kts 226°
2026-04-30 12:24 45.40353 10.90557 241 ft 5 kts 226°
2026-04-30 12:25 45.40309 10.90493 241 ft 11 kts 226°
2026-04-30 12:25 45.40258 10.90409 241 ft 10 kts 250°
2026-04-30 12:25 45.40292 10.90332 241 ft 9 kts 315°
2026-04-30 12:25 45.40331 10.90259 241 ft 9 kts 284°
2026-04-30 12:26 45.40321 10.90171 242 ft 9 kts 254°
2026-04-30 12:26 45.40297 10.90045 244 ft 17 kts 255°
2026-04-30 12:26 45.40334 10.89884 247 ft 18 kts 316°
2026-04-30 12:26 45.40412 10.89774 247 ft 10 kts 310°
2026-04-30 12:27 45.40387 10.89692 246 ft 11 kts 227°
2026-04-30 12:27 45.40315 10.89590 245 ft 19 kts 225°
2026-04-30 12:27 45.40200 10.89421 244 ft 28 kts 225°
2026-04-30 12:27 45.40064 10.89223 242 ft 27 kts 226°
2026-04-30 12:28 45.39935 10.89036 241 ft 26 kts 225°
2026-04-30 12:28 45.39814 10.88861 239 ft 24 kts 225°
2026-04-30 12:28 45.39701 10.88696 238 ft 23 kts 226°
2026-04-30 12:28 45.39592 10.88538 237 ft 22 kts 225°
2026-04-30 12:29 45.39486 10.88384 236 ft 21 kts 226°
2026-04-30 12:29 45.39383 10.88234 234 ft 21 kts 226°
2026-04-30 12:29 45.39317 10.88136 235 ft 20 kts 226°
2026-04-30 12:29 45.39218 10.87994 233 ft 20 kts 226°
2026-04-30 12:30 45.39124 10.87856 232 ft 19 kts 225°
2026-04-30 12:30 45.39031 10.87723 231 ft 19 kts 225°
2026-04-30 12:30 45.38915 10.87553 230 ft 18 kts 225°
2026-04-30 12:30 45.38876 10.87500 230 ft 7 kts 216°
2026-04-30 12:31 45.38834 10.87522 230 ft 7 kts 136°
2026-04-30 12:31 45.38801 10.87568 229 ft 7 kts 135°
2026-04-30 12:31 45.38768 10.87613 229 ft 6 kts 136°
2026-04-30 12:31 45.38764 10.87681 230 ft 6 kts 47°
2026-04-30 12:32 45.38772 10.87693 232 ft 0 kts 44°
2026-04-30 12:34 45.38787 10.87713 231 ft 14 kts 44°
2026-04-30 12:35 45.39013 10.88044 232 ft 78 kts 46°
2026-04-30 12:35 45.39537 10.88800 238 ft 134 kts 45°
2026-04-30 12:35 45.40283 10.89909 335 ft 168 kts 43°
2026-04-30 12:35 45.41102 10.91084 886 ft 169 kts 49°
2026-04-30 12:36 45.41568 10.92495 1690 ft 156 kts 95°
2026-04-30 12:36 45.41063 10.93818 2283 ft 165 kts 141°
2026-04-30 12:36 45.40080 10.94625 3022 ft 156 kts 149°
2026-04-30 12:36 45.38996 10.95125 3526 ft 174 kts 167°
2026-04-30 12:37 45.37775 10.95359 3940 ft 186 kts 159°
2026-04-30 12:37 45.36618 10.96350 4023 ft 206 kts 137°
2026-04-30 12:37 45.35422 10.97699 4101 ft 230 kts 137°
2026-04-30 12:37 45.34115 10.99193 4339 ft 251 kts 138°
2026-04-30 12:38 45.32713 11.00806 4803 ft 265 kts 139°
2026-04-30 12:38 45.31265 11.02468 5512 ft 269 kts 137°
2026-04-30 12:38 45.29807 11.04148 6294 ft 271 kts 139°
2026-04-30 12:38 45.28331 11.05843 7059 ft 274 kts 139°
2026-04-30 12:39 45.26844 11.07551 7779 ft 276 kts 137°
2026-04-30 12:39 45.25346 11.09279 8463 ft 279 kts 138°
2026-04-30 12:39 45.23857 11.11063 9137 ft 282 kts 136°
2026-04-30 12:39 45.22357 11.12883 9736 ft 285 kts 135°
2026-04-30 12:40 45.20836 11.14723 9856 ft 289 kts 135°
2026-04-30 12:40 45.19300 11.16579 10448 ft 292 kts 135°
2026-04-30 12:40 45.17710 11.18496 10696 ft 311 kts 136°
2026-04-30 12:40 45.16008 11.20552 10842 ft 331 kts 137°
2026-04-30 12:41 45.14205 11.22723 10996 ft 350 kts 136°
2026-04-30 12:41 45.12298 11.25011 11141 ft 368 kts 138°
2026-04-30 12:41 45.10306 11.27391 11397 ft 380 kts 138°
2026-04-30 12:41 45.08263 11.29824 11870 ft 385 kts 137°
2026-04-30 12:42 45.06204 11.32273 12463 ft 388 kts 139°
2026-04-30 12:42 45.04129 11.34740 12938 ft 394 kts 137°
2026-04-30 12:42 45.02019 11.37245 13537 ft 396 kts 138°
2026-04-30 12:42 44.99930 11.39726 14113 ft 401 kts 138°
2026-04-30 12:43 44.97748 11.42313 14587 ft 407 kts 138°
2026-04-30 12:43 44.95591 11.44872 14977 ft 415 kts 138°
2026-04-30 12:43 44.93365 11.47504 15528 ft 418 kts 139°
2026-04-30 12:43 44.91139 11.50131 16259 ft 417 kts 139°
2026-04-30 12:44 44.88903 11.52768 16782 ft 421 kts 139°
2026-04-30 12:44 44.86646 11.55432 17274 ft 425 kts 139°
2026-04-30 12:44 44.84361 11.58121 17741 ft 431 kts 139°
2026-04-30 12:44 44.82111 11.60934 18222 ft 434 kts 133°
2026-04-30 12:45 44.80185 11.64217 18683 ft 437 kts 122°
2026-04-30 12:45 44.78593 11.67879 19129 ft 439 kts 119°
2026-04-30 12:45 44.77045 11.71590 19578 ft 441 kts 118°
2026-04-30 12:45 44.75491 11.75331 20005 ft 445 kts 118°
2026-04-30 12:46 44.73920 11.79099 20428 ft 447 kts 118°
2026-04-30 12:46 44.72330 11.82876 20860 ft 451 kts 119°
2026-04-30 12:46 44.70719 11.86677 21262 ft 454 kts 119°
2026-04-30 12:46 44.69093 11.90493 21668 ft 456 kts 119°
2026-04-30 12:47 44.67453 11.94330 22049 ft 460 kts 119°
2026-04-30 12:47 44.65801 11.98185 22442 ft 463 kts 119°
2026-04-30 12:47 44.64136 12.02065 22852 ft 465 kts 119°
2026-04-30 12:47 44.62459 12.05963 23227 ft 468 kts 119°
2026-04-30 12:48 44.60771 12.09884 23587 ft 471 kts 119°
2026-04-30 12:48 44.59073 12.13824 23932 ft 474 kts 119°
2026-04-30 12:48 44.57362 12.17783 24262 ft 475 kts 119°
2026-04-30 12:48 44.55645 12.21750 24538 ft 478 kts 119°
2026-04-30 12:49 44.53912 12.25751 24804 ft 481 kts 119°
2026-04-30 12:49 44.52172 12.29765 25059 ft 483 kts 119°
2026-04-30 12:49 44.50420 12.33802 25289 ft 486 kts 119°
2026-04-30 12:49 44.48656 12.37859 25545 ft 489 kts 120°
2026-04-30 12:50 44.46882 12.41935 25819 ft 491 kts 120°
2026-04-30 12:50 44.45096 12.46030 26070 ft 494 kts 120°
2026-04-30 12:50 44.43302 12.50143 26324 ft 497 kts 120°
2026-04-30 12:50 44.41494 12.54277 26553 ft 499 kts 120°
2026-04-30 12:51 44.39678 12.58424 26791 ft 501 kts 120°
2026-04-30 12:51 44.37851 12.62589 27045 ft 504 kts 120°
2026-04-30 12:51 44.36015 12.66769 27343 ft 504 kts 120°
2026-04-30 12:51 44.34203 12.70888 27695 ft 504 kts 120°
2026-04-30 12:52 44.32371 12.75047 28025 ft 504 kts 120°
2026-04-30 12:52 44.30532 12.79219 28346 ft 504 kts 120°
2026-04-30 12:52 44.28691 12.83387 28633 ft 505 kts 121°
2026-04-30 12:52 44.26843 12.87563 28944 ft 506 kts 121°
2026-04-30 12:53 44.24993 12.91740 29165 ft 508 kts 121°
2026-04-30 12:53 44.23130 12.95941 29343 ft 511 kts 121°
2026-04-30 12:53 44.21258 13.00149 29666 ft 511 kts 121°
2026-04-30 12:53 44.19385 13.04356 30039 ft 510 kts 121°
2026-04-30 12:54 44.17519 13.08548 30381 ft 509 kts 121°
2026-04-30 12:54 44.15648 13.12741 30614 ft 510 kts 121°
2026-04-30 12:54 44.13774 13.16933 30857 ft 511 kts 121°
2026-04-30 12:54 44.11894 13.21137 31107 ft 511 kts 122°
2026-04-30 12:55 44.10014 13.25331 31387 ft 510 kts 122°
2026-04-30 12:55 44.08139 13.29510 31639 ft 510 kts 122°
2026-04-30 12:55 44.06255 13.33701 31859 ft 511 kts 122°
2026-04-30 12:55 44.04370 13.37889 32112 ft 511 kts 122°
2026-04-30 12:56 44.02486 13.42075 32366 ft 510 kts 122°
2026-04-30 12:56 44.00602 13.46249 32597 ft 510 kts 122°
2026-04-30 12:56 43.98713 13.50428 32834 ft 511 kts 122°
2026-04-30 12:56 43.96821 13.54606 33029 ft 512 kts 122°
2026-04-30 12:57 43.94923 13.58791 33260 ft 512 kts 122°
2026-04-30 12:57 43.93024 13.62972 33522 ft 511 kts 122°
2026-04-30 12:57 43.91129 13.67139 33778 ft 511 kts 122°
2026-04-30 12:57 43.89229 13.71312 33990 ft 512 kts 122°
2026-04-30 12:58 43.87332 13.75478 34193 ft 512 kts 122°
2026-04-30 12:58 43.85429 13.79646 34405 ft 511 kts 122°
2026-04-30 12:58 43.83555 13.83744 34643 ft 510 kts 122°
2026-04-30 12:58 43.81661 13.87879 34934 ft 507 kts 122°
2026-04-30 12:59 43.79775 13.91991 35200 ft 505 kts 122°
2026-04-30 12:59 43.77886 13.96103 35241 ft 508 kts 122°
2026-04-30 12:59 43.74087 14.04359 35222 ft 508 kts 122°
2026-04-30 13:00 43.70280 14.12609 35246 ft 509 kts 122°
2026-04-30 13:00 43.66459 14.20867 35252 ft 511 kts 123°
2026-04-30 13:01 43.62618 14.29141 35244 ft 513 kts 123°
2026-04-30 13:01 43.58766 14.37424 35238 ft 513 kts 123°
2026-04-30 13:02 43.54938 14.45720 35232 ft 512 kts 121°
2026-04-30 13:02 43.51375 14.54217 35231 ft 511 kts 119°
2026-04-30 13:03 43.47900 14.62740 35230 ft 510 kts 119°
2026-04-30 13:03 43.44394 14.71228 35219 ft 510 kts 120°
2026-04-30 13:04 43.40854 14.79673 35221 ft 509 kts 120°
2026-04-30 13:04 43.37300 14.88097 35223 ft 509 kts 120°
2026-04-30 13:05 43.33764 14.96451 35222 ft 510 kts 120°
2026-04-30 13:06 43.28403 15.09079 35208 ft 511 kts 120°
2026-04-30 13:06 43.24818 15.17495 35208 ft 511 kts 121°
2026-04-30 13:07 43.21225 15.25909 35205 ft 511 kts 121°
2026-04-30 13:07 43.17619 15.34323 35186 ft 513 kts 121°
2026-04-30 13:08 43.14001 15.42750 35193 ft 513 kts 121°
2026-04-30 13:08 43.10374 15.51173 35181 ft 514 kts 121°
2026-04-30 13:09 43.06739 15.59585 35182 ft 514 kts 121°
2026-04-30 13:09 43.03097 15.67990 35185 ft 514 kts 121°
2026-04-30 13:10 42.99443 15.76397 35174 ft 515 kts 121°
2026-04-30 13:10 42.95779 15.84807 35166 ft 515 kts 121°
2026-04-30 13:11 42.92107 15.93208 35164 ft 515 kts 122°
2026-04-30 13:11 42.88425 16.01581 35156 ft 514 kts 123°
2026-04-30 13:12 42.84717 16.09915 35166 ft 514 kts 123°
2026-04-30 13:12 42.81036 16.18294 35167 ft 516 kts 122°
2026-04-30 13:13 42.75504 16.30894 35159 ft 518 kts 122°
2026-04-30 13:14 42.69934 16.43442 35159 ft 519 kts 123°
2026-04-30 13:14 42.64312 16.56035 35152 ft 520 kts 123°
2026-04-30 13:15 42.58689 16.68606 35130 ft 519 kts 123°
2026-04-30 13:16 42.54929 16.76959 35146 ft 519 kts 123°
2026-04-30 13:16 42.51158 16.85318 35145 ft 520 kts 123°
2026-04-30 13:17 42.45486 16.97845 35136 ft 520 kts 124°
2026-04-30 13:18 42.39794 17.10361 35134 ft 521 kts 124°
2026-04-30 13:18 42.34091 17.22874 35127 ft 521 kts 124°
2026-04-30 13:19 42.30921 17.29796 35133 ft 522 kts 124°
2026-04-30 13:19 42.27099 17.38115 35124 ft 521 kts 124°
2026-04-30 13:20 42.23270 17.46431 35130 ft 522 kts 124°
2026-04-30 13:20 42.19437 17.54740 35121 ft 522 kts 124°
2026-04-30 13:21 42.15595 17.63043 35126 ft 522 kts 124°
2026-04-30 13:22 42.09819 17.75479 35112 ft 522 kts 125°
2026-04-30 13:22 42.04030 17.87894 35116 ft 522 kts 125°
2026-04-30 13:23 41.98224 18.00289 35106 ft 522 kts 125°
2026-04-30 13:24 41.90485 18.16735 35108 ft 520 kts 125°
2026-04-30 13:25 41.82752 18.33081 35105 ft 518 kts 125°
2026-04-30 13:26 41.73097 18.53371 35104 ft 516 kts 126°
2026-04-30 13:28 41.63454 18.73498 35097 ft 514 kts 126°
2026-04-30 13:28 41.57646 18.85548 35096 ft 514 kts 126°
2026-04-30 13:29 41.49905 19.01545 35083 ft 512 kts 126°
2026-04-30 13:31 41.40057 19.21324 35092 ft 512 kts 128°
2026-04-30 13:32 41.29920 19.40916 35060 ft 513 kts 127°
2026-04-30 13:33 41.21869 19.56494 35068 ft 510 kts 128°
2026-04-30 13:34 41.15833 19.68114 35083 ft 510 kts 128°
2026-04-30 13:35 41.07795 19.83518 35079 ft 509 kts 128°
2026-04-30 13:36 40.99710 19.98939 35055 ft 511 kts 128°
2026-04-30 13:36 40.93609 20.10518 35057 ft 511 kts 128°
2026-04-30 13:37 40.87486 20.22099 35054 ft 513 kts 128°
2026-04-30 13:38 40.81349 20.33676 35062 ft 513 kts 128°
2026-04-30 13:39 40.73150 20.49053 35023 ft 510 kts 128°
2026-04-30 13:40 40.67074 20.60406 35036 ft 505 kts 128°
2026-04-30 13:40 40.63033 20.67940 35042 ft 502 kts 128°
2026-04-30 13:41 40.58993 20.75444 35049 ft 504 kts 128°
2026-04-30 13:41 40.54927 20.82975 35030 ft 505 kts 128°
2026-04-30 13:42 40.50869 20.90488 35019 ft 503 kts 128°
2026-04-30 13:42 40.43982 21.00609 35030 ft 491 kts 143°
2026-04-30 13:43 40.38792 21.06434 35016 ft 490 kts 143°
2026-04-30 13:43 40.33631 21.12277 35020 ft 490 kts 143°
2026-04-30 13:44 40.28512 21.18140 35021 ft 489 kts 143°
2026-04-30 13:44 40.23388 21.24025 35028 ft 491 kts 143°
2026-04-30 13:45 40.15640 21.32889 35003 ft 495 kts 142°
2026-04-30 13:46 40.10457 21.38800 35009 ft 495 kts 143°
2026-04-30 13:46 40.05265 21.44709 35000 ft 495 kts 143°
2026-04-30 13:47 40.00070 21.50610 34984 ft 495 kts 143°
2026-04-30 13:47 39.94876 21.56498 34989 ft 494 kts 143°
2026-04-30 13:48 39.89691 21.62350 34994 ft 493 kts 143°
2026-04-30 13:48 39.84513 21.68187 34988 ft 492 kts 143°
2026-04-30 13:49 39.79339 21.74009 34989 ft 492 kts 143°
2026-04-30 13:49 39.74166 21.79820 34978 ft 491 kts 143°
2026-04-30 13:50 39.69004 21.85606 34983 ft 490 kts 142°
2026-04-30 13:50 39.61290 21.94256 34960 ft 488 kts 140°
2026-04-30 13:51 39.58979 21.97491 34959 ft 491 kts 129°
2026-04-30 13:51 39.56994 22.01096 34973 ft 492 kts 127°
2026-04-30 13:51 39.53113 22.08395 34963 ft 492 kts 127°
2026-04-30 13:52 39.49207 22.15677 34946 ft 492 kts 127°
2026-04-30 13:52 39.45261 22.22928 34959 ft 493 kts 127°
2026-04-30 13:53 39.41284 22.30163 34966 ft 495 kts 128°
2026-04-30 13:53 39.37287 22.37415 34972 ft 496 kts 128°
2026-04-30 13:54 39.33281 22.44674 34952 ft 496 kts 128°
2026-04-30 13:54 39.29273 22.51916 34975 ft 495 kts 128°
2026-04-30 13:55 39.25270 22.59145 34985 ft 494 kts 128°
2026-04-30 13:55 39.21273 22.66342 34989 ft 493 kts 128°
2026-04-30 13:56 39.17275 22.73523 34993 ft 492 kts 128°
2026-04-30 13:56 39.13281 22.80685 35000 ft 492 kts 128°
2026-04-30 13:57 39.09284 22.87834 34964 ft 492 kts 128°
2026-04-30 13:57 39.05280 22.94980 34980 ft 492 kts 128°
2026-04-30 13:58 38.99276 23.05665 34959 ft 492 kts 129°
2026-04-30 13:59 38.95261 23.12779 34986 ft 492 kts 129°
2026-04-30 13:59 38.91236 23.19907 34994 ft 494 kts 129°
2026-04-30 14:00 38.87197 23.27043 34998 ft 495 kts 129°
2026-04-30 14:00 38.81109 23.37767 34987 ft 496 kts 129°
2026-04-30 14:01 38.77041 23.44913 34988 ft 496 kts 129°
2026-04-30 14:01 38.72973 23.52045 35001 ft 495 kts 129°
2026-04-30 14:02 38.68907 23.59156 34991 ft 495 kts 129°
2026-04-30 14:02 38.64836 23.66263 34990 ft 495 kts 129°
2026-04-30 14:03 38.60763 23.73357 34992 ft 495 kts 129°
2026-04-30 14:03 38.56685 23.80449 34993 ft 495 kts 129°
2026-04-30 14:04 38.53293 23.86335 35001 ft 495 kts 129°
2026-04-30 14:04 38.49203 23.93410 35002 ft 495 kts 129°
2026-04-30 14:05 38.45105 24.00484 35005 ft 495 kts 129°
2026-04-30 14:05 38.41006 24.07548 34990 ft 496 kts 130°
2026-04-30 14:06 38.34842 24.18148 35006 ft 496 kts 130°
2026-04-30 14:07 38.28668 24.28717 34991 ft 495 kts 130°
2026-04-30 14:08 38.22497 24.39254 34998 ft 494 kts 130°
2026-04-30 14:08 38.16331 24.49754 35000 ft 494 kts 130°
2026-04-30 14:09 38.12220 24.56738 35003 ft 493 kts 130°
2026-04-30 14:10 38.06061 24.67160 35000 ft 492 kts 130°
2026-04-30 14:10 38.01947 24.74104 35007 ft 492 kts 130°
2026-04-30 14:11 37.97827 24.81048 35001 ft 493 kts 130°
2026-04-30 14:11 37.93698 24.87985 34999 ft 494 kts 130°
2026-04-30 14:11 37.91626 24.91461 34876 ft 497 kts 130°
2026-04-30 14:12 37.89539 24.94967 34627 ft 498 kts 130°
2026-04-30 14:12 37.87464 24.98443 34383 ft 492 kts 130°
2026-04-30 14:12 37.85411 25.01884 34136 ft 489 kts 130°
2026-04-30 14:12 37.83367 25.05316 33877 ft 488 kts 130°
2026-04-30 14:13 37.81319 25.08726 33610 ft 486 kts 130°
2026-04-30 14:13 37.79289 25.12125 33342 ft 483 kts 130°
2026-04-30 14:13 37.77263 25.15510 33085 ft 483 kts 130°
2026-04-30 14:13 37.75229 25.18886 32775 ft 482 kts 130°
2026-04-30 14:14 37.73197 25.22254 32050 ft 482 kts 130°
2026-04-30 14:14 37.71166 25.25619 31385 ft 482 kts 130°
2026-04-30 14:14 37.69137 25.28987 30678 ft 482 kts 129°
2026-04-30 14:14 37.67102 25.32361 29930 ft 483 kts 129°
2026-04-30 14:15 37.65068 25.35731 29051 ft 483 kts 129°
2026-04-30 14:15 37.63030 25.39102 28243 ft 482 kts 129°
2026-04-30 14:15 37.60998 25.42462 27402 ft 482 kts 129°
2026-04-30 14:15 37.58958 25.45827 26528 ft 483 kts 129°
2026-04-30 14:16 37.56928 25.49176 25938 ft 478 kts 129°
2026-04-30 14:16 37.54921 25.52484 25318 ft 473 kts 129°
2026-04-30 14:16 37.52931 25.55760 24719 ft 469 kts 129°
2026-04-30 14:16 37.50956 25.59010 24125 ft 465 kts 129°
2026-04-30 14:17 37.48994 25.62233 23501 ft 462 kts 129°
2026-04-30 14:17 37.47046 25.65431 22794 ft 458 kts 129°
2026-04-30 14:17 37.45117 25.68595 22180 ft 453 kts 129°
2026-04-30 14:17 37.43209 25.71723 21566 ft 448 kts 129°
2026-04-30 14:18 37.41323 25.74813 20973 ft 443 kts 129°
2026-04-30 14:18 37.39448 25.77877 20387 ft 439 kts 129°
2026-04-30 14:18 37.35749 25.83914 19233 ft 432 kts 129°
2026-04-30 14:19 37.32112 25.89842 18047 ft 426 kts 129°
2026-04-30 14:19 37.30309 25.92778 17416 ft 423 kts 129°
2026-04-30 14:19 37.28521 25.95686 16820 ft 419 kts 129°
2026-04-30 14:20 37.26749 25.98568 16245 ft 415 kts 129°
2026-04-30 14:20 37.24995 26.01417 15680 ft 411 kts 129°
2026-04-30 14:20 37.21552 26.07004 14568 ft 405 kts 129°
2026-04-30 14:21 37.19846 26.09767 14330 ft 396 kts 129°
2026-04-30 14:21 37.18146 26.12515 14105 ft 403 kts 129°
2026-04-30 14:21 37.14680 26.18111 13620 ft 406 kts 129°
2026-04-30 14:22 37.12954 26.20898 13351 ft 403 kts 129°
2026-04-30 14:22 37.09537 26.26410 12575 ft 397 kts 129°
2026-04-30 14:22 37.07852 26.29129 12068 ft 393 kts 129°
2026-04-30 14:23 37.04529 26.34475 11128 ft 382 kts 129°
2026-04-30 14:23 37.01385 26.39525 10825 ft 355 kts 129°
2026-04-30 14:24 36.98444 26.44241 10543 ft 333 kts 129°
2026-04-30 14:24 36.97042 26.46486 10408 ft 323 kts 129°
2026-04-30 14:25 36.94358 26.50779 10156 ft 304 kts 129°
2026-04-30 14:25 36.91817 26.54841 9781 ft 292 kts 129°
2026-04-30 14:26 36.89404 26.58700 9587 ft 275 kts 129°
2026-04-30 14:26 36.88217 26.60590 9004 ft 284 kts 129°
2026-04-30 14:26 36.85768 26.64503 8286 ft 285 kts 128°
2026-04-30 14:27 36.84579 26.66481 7964 ft 284 kts 128°
2026-04-30 14:27 36.83406 26.68452 7675 ft 282 kts 127°
2026-04-30 14:27 36.82240 26.70414 7383 ft 281 kts 128°
2026-04-30 14:28 36.79925 26.74299 6860 ft 277 kts 127°
2026-04-30 14:28 36.78780 26.76216 6597 ft 275 kts 128°
2026-04-30 14:28 36.77643 26.78115 6318 ft 273 kts 128°
2026-04-30 14:28 36.76510 26.80005 6046 ft 271 kts 127°
2026-04-30 14:29 36.74274 26.83730 5532 ft 266 kts 128°
2026-04-30 14:29 36.72442 26.86783 5103 ft 263 kts 127°
2026-04-30 14:30 36.68843 26.92772 4442 ft 250 kts 127°
2026-04-30 14:31 36.66849 26.96081 4271 ft 226 kts 127°
2026-04-30 14:31 36.65151 26.99135 4007 ft 206 kts 106°
2026-04-30 14:31 36.65176 27.00823 3862 ft 191 kts 69°
2026-04-30 14:32 36.66545 27.03589 3484 ft 185 kts 51°
2026-04-30 14:32 36.67355 27.04828 3245 ft 185 kts 49°
2026-04-30 14:32 36.68165 27.06036 3126 ft 182 kts 47°
2026-04-30 14:33 36.68964 27.07291 2826 ft 186 kts 52°
2026-04-30 14:33 36.70455 27.09861 2318 ft 177 kts 50°
2026-04-30 14:33 36.71290 27.10935 2067 ft 165 kts 39°
2026-04-30 14:34 36.72157 27.11815 1752 ft 158 kts 34°
2026-04-30 14:34 36.73118 27.12450 1494 ft 157 kts 15°
2026-04-30 14:34 36.74192 27.12660 1340 ft 155 kts 355°
2026-04-30 14:34 36.75229 27.12360 1196 ft 156 kts 333°
2026-04-30 14:35 36.76785 27.11184 882 ft 161 kts 327°
2026-04-30 14:35 36.78054 27.10203 579 ft 157 kts 325°
2026-04-30 14:35 36.78957 27.09506 403 ft 145 kts 326°
2026-04-30 14:36 36.79701 27.08923 410 ft 99 kts 328°
2026-04-30 14:36 36.80107 27.08608 411 ft 38 kts 328°
2026-04-30 14:36 36.80291 27.08465 416 ft 17 kts 332°
2026-04-30 14:36 36.80357 27.08493 413 ft 10 kts 89°
2026-04-30 14:37 36.80342 27.08579 420 ft 10 kts 102°
2026-04-30 14:37 36.80324 27.08661 413 ft 10 kts 116°
2026-04-30 14:37 36.80278 27.08721 418 ft 9 kts 142°
2026-04-30 14:37 36.80222 27.08763 419 ft 9 kts 150°
2026-04-30 14:38 36.80165 27.08804 412 ft 10 kts 150°
2026-04-30 14:38 36.80115 27.08845 411 ft 6 kts 130°
2026-04-30 14:38 36.80128 27.08891 416 ft 6 kts 58°
2026-04-30 14:38 36.80143 27.08922 418 ft 2 kts 58°
2026-04-30 14:39 36.80147 27.08930 418 ft 0 kts 57°